La Junta, CO

9:54 PM MDT on June 25, 2017 (GMT -0600)
La Junta Municipal

Weather History for KLHX - September, 2013

Change the Weather History Date:

Monday, September 30, 2013

  Actual Average Record
Temperature  
Mean Temperature 72 °F 61 °F  
Max Temperature 90 °F 76 °F 93 °F (1969)
Min Temperature 53 °F 45 °F 22 °F (1985)
Degree Days  
Heating Degree Days 0 6  
Month to date heating degree days 12 69  
Since 1 July heating degree days 12 73  
Cooling Degree Days 7 1  
Month to date cooling degree days 254 138  
Year to date cooling degree days 1655 1216  
Growing Degree Days 22 (Base 50)    
Moisture  
Dew Point 27 °F    
Average Humidity 25    
Maximum Humidity 41    
Minimum Humidity 8    
Precipitation  
Precipitation 0.00 in 0.03 in 0.82 in (1998)
Month to date precipitation 0.71 0.83  
Year to date precipitation 4.72  
Sea Level Pressure  
Sea Level Pressure 29.68 in    
Wind  
Wind Speed 10 mph (SSW)    
Max Wind Speed 20 mph    
Max Gust Speed 23 mph    
Visibility 10 miles    
Events      
T = Trace of Precipitation, MM = Missing Value Source: NWS Daily Summary

Daily Weather History Graph

Daily Weather History Graph

Search for Another Location

Airport or City:

Trip Planner

Search our weather history database for the weather conditions in past years. The results will help you decide how hot, cold, wet, or windy it might be!

Date:

Astronomy

Sep. 30, 2013 Rise Set
Actual Time 6:49 AM MDT 6:38 PM MDT
Civil Twilight 6:22 AM MDT 7:04 PM MDT
Nautical Twilight 5:52 AM MDT 7:34 PM MDT
Astronomical Twilight 5:21 AM MDT 8:05 PM MDT
Moon 2:31 AM MDT (9/30) 4:07 PM MDT (9/30)
Length of Visible Light 12h 41m
Length of Day
11h 49m
Waning Crescent, 18% of the Moon is Illuminated
Sep 30
Waning Crescent
Oct 4
New
Oct 11
First Quarter
Oct 18
Full
Oct 26
Last Quarter

Hourly Weather History & Observations

Time (MDT) Temp. Dew Point Humidity Pressure Visibility Wind Dir Wind Speed Gust Speed Precip Events Conditions
12:53 AM 54.0 °F 25.0 °F 33% 29.77 in 10.0 mi ENE 3.5 mph - N/A   Clear
1:53 AM 61.0 °F 28.0 °F 29% 29.73 in 10.0 mi WSW 16.1 mph - N/A   Clear
2:53 AM 61.0 °F 28.0 °F 29% 29.71 in 10.0 mi WSW 16.1 mph - N/A   Clear
3:53 AM 57.9 °F 28.0 °F 32% 29.73 in 10.0 mi NNW 4.6 mph - N/A   Clear
4:53 AM 57.0 °F 28.9 °F 34% 29.74 in 10.0 mi West 11.5 mph - N/A   Clear
5:53 AM 57.0 °F 28.9 °F 34% 29.74 in 10.0 mi WNW 12.7 mph - N/A   Clear
6:53 AM 54.0 °F 30.0 °F 40% 29.76 in 10.0 mi WSW 8.1 mph - N/A   Clear
7:53 AM 60.1 °F 28.0 °F 30% 29.75 in 10.0 mi West 11.5 mph - N/A   Clear
8:53 AM 68.0 °F 27.0 °F 21% 29.76 in 10.0 mi WSW 5.8 mph - N/A   Clear
9:53 AM 73.9 °F 28.0 °F 18% 29.75 in 10.0 mi West 10.4 mph - N/A   Clear
10:53 AM 78.1 °F 26.1 °F 15% 29.74 in 10.0 mi SW 6.9 mph - N/A   Clear
11:53 AM 81.0 °F 21.9 °F 11% 29.71 in 10.0 mi South 6.9 mph - N/A   Clear
12:53 PM 84.9 °F 21.9 °F 10% 29.68 in 10.0 mi South 8.1 mph - N/A   Clear
1:53 PM 86.0 °F 24.1 °F 10% 29.64 in 10.0 mi Variable 4.6 mph - N/A   Clear
2:53 PM 89.1 °F 21.9 °F 9% 29.61 in 10.0 mi SSW 9.2 mph 16.1 mph N/A   Clear
3:53 PM 89.1 °F 23.0 °F 9% 29.60 in 10.0 mi SSE 12.7 mph - N/A   Clear
4:53 PM 90.0 °F 23.0 °F 9% 29.59 in 10.0 mi SSE 12.7 mph - N/A   Clear
5:53 PM 88.0 °F 25.0 °F 10% 29.58 in 10.0 mi South 6.9 mph - N/A   Clear
6:53 PM 80.1 °F 27.0 °F 14% 29.61 in 10.0 mi SE 8.1 mph - N/A   Clear
7:53 PM 75.0 °F 28.9 °F 18% 29.62 in 10.0 mi SSE 3.5 mph - N/A   Clear
8:53 PM 75.0 °F 28.0 °F 18% 29.61 in 10.0 mi South 9.2 mph - N/A   Clear
9:53 PM 71.1 °F 28.0 °F 20% 29.62 in 10.0 mi SSW 10.4 mph - N/A   Clear
10:53 PM 70.0 °F 28.9 °F 22% 29.62 in 10.0 mi SW 19.6 mph - N/A   Clear
11:53 PM 69.1 °F 30.9 °F 24% 29.62 in 10.0 mi SW 18.4 mph - N/A   Clear